This is the latest recevied weather packets stored in our database for station/object DM0MR. If no packets are shown the sender has not sent any weather packets the latest 10 day(s).
| Time | Temp. | Humidity | Pressure | Rain* | Wind** | Luminosity | Snow |
|---|---|---|---|---|---|---|---|
| 1777009277 | 9.44° C | 90% | 1011 hPa | 0 mm | - | - | - |
| 1777008378 | 2.22° C | 94% | 1010.9 hPa | 0 mm | - | - | - |
| 1777007478 | 2.22° C | 94% | 1010.7 hPa | 0 mm | - | - | - |
| 1777006578 | 1.11° C | 94% | 1010.8 hPa | 0 mm | - | - | - |
| 1777005678 | 1.11° C | 94% | 1010.6 hPa | 0 mm | - | - | - |
| 1777004779 | 1.11° C | 94% | 1010.6 hPa | 0 mm | - | - | - |
| 1777003878 | 1.67° C | 93% | 1010.5 hPa | 0 mm | - | - | - |
| 1777002078 | 1.67° C | 93% | 1010.4 hPa | 0 mm | - | - | - |
| 1777001178 | 1.67° C | 93% | 1010.4 hPa | 0 mm | - | - | - |
| 1777000277 | 2.22° C | 91% | 1010.5 hPa | 0 mm | - | - | - |
| 1776999377 | 2.22° C | 91% | 1010.5 hPa | 0 mm | - | - | - |
| 1776998478 | 2.22° C | 91% | 1010.6 hPa | 0 mm | - | - | - |
| 1776997578 | 2.22° C | 91% | 1010.7 hPa | 0 mm | - | - | - |
| 1776996677 | 2.22° C | 91% | 1010.8 hPa | 0 mm | - | - | - |
| 1776995776 | 2.22° C | 91% | 1011 hPa | 0 mm | - | - | - |
| 1776994878 | 2.78° C | 90% | 1010.9 hPa | 0 mm | - | - | - |
| 1776993078 | 3.33° C | 94% | 1011 hPa | 0 mm | - | - | - |
| 1776992179 | 3.33° C | 93% | 1010.8 hPa | 0 mm | - | - | - |
| 1776991277 | 3.33° C | 93% | 1011 hPa | 0 mm | - | - | - |
| 1776989479 | 3.89° C | 91% | 1011 hPa | 0 mm | - | - | - |
| 1776988579 | 4.44° C | 90% | 1011.1 hPa | 0 mm | - | - | - |
| 1776987677 | 4.44° C | 90% | 1011.2 hPa | 0 mm | - | - | - |
| 1776985878 | 5° C | 87% | 1011.5 hPa | 0 mm | - | - | - |
| 1776984978 | 5° C | 86% | 1011.6 hPa | 0 mm | - | - | - |
| 1776984077 | 5.56° C | 86% | 1011.8 hPa | 0 mm | - | - | - |
* Rain latest hour (hover to see other rain measurements)
** Current wind speed in m/s (hover to see current wind gust speed)